Flag for Germany Weather past 2 weeks in Oelde, North Rhine-Westphalia, Germany

Now
43 °F

Partly sunny.


Feels Like: 39 °F
Forecast: 35 / 53 °F
Wind: 6 mph from West

Location: Paderborn / Lippstadt

Current Time: Mar 6, 2015 at 6:01:02 PM

Latest Report: Mar 6, 2015 at 5:20 PM


Visibility: N/A

Pressure: 30.54 "Hg

Humidity: 66%

Dew point: 32 °F

Location of OeldeLocation

Historic Weather in Oelde — Graph

°F

Oelde temperature yesterday

Maximum temperature yesterday: 41 °F (at 2:20 PM)
Minimum temperature yesterday: 34 °F (at 7:20 AM)
Average temperature yesterday: 37 °F

Past Weeks' High & Low Weather Summary

 TemperatureHumidityPressure
High48 °F (Mar 1, 11:50 AM)100% (Feb 20, 12:20 AM)30.60 "Hg (Feb 20, 12:20 AM)
Low27 °F (Feb 20, 12:20 AM)42% (Feb 28, 4:20 PM)29.33 "Hg (Feb 21, 6:50 AM)
Average38 °F85%29.91 "Hg
* Reported Feb 19 4:20 PM — Mar 6 4:50 PM, Oelde, Weather by CustomWeather, © 2015

Note: Actual official high and low records may vary slightly from our data, if they occured in-between our weather recording intervals... More about our weather records

Advertising

Oelde weather history for previous 24 hours

 ConditionsComfort  
Time TempWeatherWind HumidityBarometerVisibility
4:50 PM
Fri, Mar 6
43 °FPartly sunny.6 mph71%30.54 "HgN/A
4:20 PM43 °FPartly sunny.9 mph76%30.54 "HgN/A
3:50 PM43 °FPartly sunny.12 mph76%30.54 "HgN/A
3:20 PM43 °FPartly sunny.6 mph76%30.54 "HgN/A
2:50 PM43 °FPartly sunny.10 mph76%30.57 "HgN/A
2:20 PM43 °FPartly sunny.9 mph71%30.57 "HgN/A
1:50 PM43 °FPartly sunny.10 mph76%30.54 "HgN/A
1:20 PM43 °FPartly sunny.12 mph76%30.57 "HgN/A
12:50 PM41 °FPartly sunny.8 mph76%30.57 "HgN/A
12:20 PM41 °FPartly sunny.9 mph87%30.60 "HgN/A
11:50 AM39 °FPartly sunny.9 mph93%30.60 "HgN/A
11:20 AM41 °FPartly sunny.10 mph87%30.60 "HgN/A
10:50 AM39 °FPartly sunny.12 mph93%30.57 "HgN/A
10:20 AM39 °FPartly sunny.9 mph93%30.60 "HgN/A
9:50 AM39 °FPartly sunny.9 mph93%30.57 "HgN/A
9:20 AM39 °FPartly sunny.10 mph93%30.57 "HgN/A
8:50 AM37 °FPartly sunny.9 mph100%30.57 "HgN/A
8:20 AM37 °FPartly sunny.9 mph93%30.57 "HgN/A
7:50 AM37 °FPartly sunny.8 mph93%30.57 "HgN/A
7:20 AM37 °FPartly sunny.8 mph93%30.57 "HgN/A
6:20 AM36 °FPassing clouds.9 mph100%30.57 "HgN/A
5:50 AM37 °FPassing clouds.12 mph93%30.57 "HgN/A
5:20 AM37 °FPassing clouds.7 mph93%30.57 "HgN/A
4:50 AM37 °FPassing clouds.7 mph93%30.57 "HgN/A
4:20 AM34 °FPassing clouds.7 mph100%30.60 "HgN/A
3:50 AM36 °FPassing clouds.12 mph100%30.57 "HgN/A
3:20 AM36 °FPassing clouds.9 mph100%30.60 "HgN/A
2:50 AM36 °FClear.9 mph93%30.60 "Hg10 mi
2:20 AM32 °FClear.9 mph100%30.60 "Hg10 mi
1:50 AM32 °FClear.9 mph100%30.60 "Hg10 mi
1:20 AM34 °FPassing clouds.9 mph93%30.60 "HgN/A
12:50 AM34 °FPassing clouds.7 mph100%30.60 "HgN/A
12:20 AM39 °FClear.6 mph93%30.60 "Hg10 mi
11:50 PM
Thu, Mar 5
36 °FClear.7 mph100%30.60 "Hg10 mi
11:20 PM36 °FPassing clouds.8 mph93%30.60 "HgN/A
10:50 PM36 °FPassing clouds.9 mph93%30.60 "HgN/A
10:20 PM36 °FPassing clouds.8 mph100%30.60 "HgN/A
9:20 PM36 °FPassing clouds.8 mph93%30.60 "HgN/A
8:50 PM36 °FPassing clouds.7 mph100%30.60 "HgN/A
8:20 PM37 °FPassing clouds.7 mph100%30.60 "HgN/A
7:50 PM39 °FPassing clouds.6 mph93%30.60 "HgN/A
7:20 PM39 °FPassing clouds.6 mph93%30.60 "HgN/A
6:50 PM39 °FPassing clouds.6 mph87%30.60 "HgN/A
6:20 PM41 °FPassing clouds.6 mph81%30.60 "HgN/A
Weather by CustomWeather, © 2015

See weather overviewHow to use our weather pages